TimePST,TemperatureF,Dew PointF,Humidity,Sea Level PressureIn,VisibilityMPH,Wind Direction,Wind SpeedMPH,Gust SpeedMPH,PrecipitationIn,Events,Conditions,WindDirDegrees,DateUTC
12:00 AM,37.4,37.4,100,30.13,15.0,East,4.6,-,N/A,,Overcast,80,2013-01-08 08:00:00
1:00 AM,37.4,35.6,93,30.14,15.0,East,9.2,-,N/A,,Mostly Cloudy,100,2013-01-08 09:00:00
2:00 AM,37.4,37.4,100,30.14,15.0,East,5.8,-,N/A,,Overcast,80,2013-01-08 10:00:00
3:00 AM,39.2,37.4,93,30.15,15.0,NE,6.9,-,N/A,,Overcast,40,2013-01-08 11:00:00
4:00 AM,39,38,94,30.13,15,ENE,6.9,,,,Overcast,70,2013-01-08 12:00:00
4:00 AM,39.2,37.4,93,30.13,15.0,East,6.9,-,N/A,,Overcast,80,2013-01-08 12:00:00
5:00 AM,39.2,37.4,93,30.11,15.0,East,8.1,-,N/A,,Overcast,80,2013-01-08 13:00:00
6:00 AM,39.2,37.4,93,30.09,15.0,East,10.4,-,N/A,,Overcast,80,2013-01-08 14:00:00
7:00 AM,39.2,37.4,93,30.07,15.0,East,8.1,-,N/A,,Overcast,90,2013-01-08 15:00:00
7:02 AM,39.2,-9999,N/A,-9999,12.0,East,9.2,-,N/A,Rain,Light Rain,90,2013-01-08 15:02:00
8:00 AM,41.0,39.2,93,30.04,8.0,ESE,6.9,-,N/A,Rain,Light Rain,120,2013-01-08 16:00:00
9:00 AM,39.2,39.2,100,30.02,8.0,East,8.1,-,N/A,Rain,Light Rain,90,2013-01-08 17:00:00
10:00 AM,40,39,93,30.00,6,ESE,11.5,,,Rain,Light Rain,110,2013-01-08 18:00:00
10:00 AM,39.2,39.2,100,30.00,6.0,ESE,11.5,-,N/A,Rain,Light Rain,110,2013-01-08 18:00:00
11:00 AM,39.2,39.2,100,29.96,6.0,East,13.8,-,N/A,Rain,Light Rain,90,2013-01-08 19:00:00
12:00 PM,39.2,39.2,100,29.91,6.0,East,12.7,-,N/A,Rain,Light Rain,100,2013-01-08 20:00:00
12:31 PM,39.2,-9999,N/A,-9999,7.0,ESE,12.7,-,N/A,Rain,Light Rain,110,2013-01-08 20:31:00
12:41 PM,39.2,-9999,N/A,-9999,6.0,ESE,19.6,-,N/A,Rain,Light Rain,110,2013-01-08 20:41:00
1:00 PM,39.2,37.4,93,29.87,5.0,East,16.1,23.0,N/A,Rain,Light Rain,100,2013-01-08 21:00:00
1:40 PM,37.4,-9999,N/A,-9999,7.0,East,18.4,-,N/A,Rain,Light Rain,90,2013-01-08 21:40:00
2:00 PM,37.4,35.6,93,29.79,7.0,ENE,13.8,19.6,N/A,Rain,Light Rain,70,2013-01-08 22:00:00
2:23 PM,37.4,-9999,N/A,-9999,7.0,East,15.0,-,N/A,Rain,Light Rain,80,2013-01-08 22:23:00
2:31 PM,37.4,-9999,N/A,-9999,7.0,East,17.3,-,N/A,Rain,Light Rain,80,2013-01-08 22:31:00
3:00 PM,37.4,35.6,93,29.79,7.0,ENE,13.8,19.6,N/A,Rain,Light Rain,70,2013-01-08 23:00:00
3:16 PM,37.4,-9999,N/A,-9999,6.0,East,17.3,-,N/A,Rain,Light Rain,80,2013-01-08 23:16:00
3:29 PM,37.4,-9999,N/A,-9999,8.0,ENE,13.8,21.9,N/A,Rain,Light Rain,70,2013-01-08 23:29:00
4:00 PM,38,37,96,29.75,7,East,11.5,,,Rain,Light Rain,80,2013-01-09 00:00:00
4:00 PM,37.4,37.4,100,29.75,7.0,East,11.5,-,N/A,Rain,Light Rain,80,2013-01-09 00:00:00
4:10 PM,39.2,-9999,N/A,-9999,6.0,East,11.5,-,N/A,Rain,Light Rain,80,2013-01-09 00:10:00
5:00 PM,39.2,39.2,100,29.70,7.0,East,13.8,-,N/A,Rain,Light Rain,80,2013-01-09 01:00:00
5:34 PM,39.2,-9999,N/A,-9999,7.0,East,13.8,-,N/A,Rain,Rain,90,2013-01-09 01:34:00
6:00 PM,39.2,39.2,100,29.67,7.0,East,12.7,-,N/A,Rain,Rain,90,2013-01-09 02:00:00
6:39 PM,39.2,-9999,N/A,-9999,7.0,East,17.3,-,N/A,Rain,Rain,90,2013-01-09 02:39:00
7:00 PM,39.2,39.2,100,29.64,7.0,East,13.8,19.6,N/A,Rain,Rain,100,2013-01-09 03:00:00
8:00 PM,39.2,39.2,100,29.62,7.0,East,17.3,-,N/A,Rain,Rain,90,2013-01-09 04:00:00
8:48 PM,41.0,-9999,N/A,-9999,7.0,East,13.8,-,N/A,Rain,Light Rain,100,2013-01-09 04:48:00
9:00 PM,42.8,41.0,93,29.62,7.0,East,12.7,-,N/A,Rain,Light Rain,100,2013-01-09 05:00:00
10:00 PM,48.2,46.4,93,29.61,6.0,SSE,13.8,-,N/A,Rain,Light Rain,160,2013-01-09 06:00:00
11:00 PM,48.2,46.4,93,29.62,8.0,SSE,13.8,-,N/A,Rain,Light Rain,160,2013-01-09 07:00:00
11:31 PM,46.4,-9999,N/A,-9999,8.0,South,10.4,-,N/A,,Overcast,180,2013-01-09 07:31:00